Home   Weather   Cuenca   Past weeks

Flag for Ecuador Past Weather in Cuenca, Ecuador — Yesterday and Last 2 Weeks

Now
61 °F

Light rain. Partly sunny.


Feels Like: 61 °F
Forecast: N/A
Wind: 9 mph from Northeast

Location: Cuenca / Mariscal Lamar

Current Time: Dec 2, 2016 at 5:23:29 pm

Latest Report: Dec 2, 2016 at 5:00 pm


Visibility: N/A

Pressure: 30.21 "Hg (22.34 "Hg at 2554m altitude)

Humidity: 77%

Dew Point: 54 °F

Location of CuencaLocation

Past Weather in Cuenca — Graph

°F

Cuenca Temperature Yesterday

Maximum temperature yesterday: 68 °F (at 4:00 pm)
Minimum temperature yesterday: 55 °F (at 12:00 am)
Average temperature yesterday: 60 °F

High & Low Weather Summary for the Past Weeks

 TemperatureHumidityPressure
High81 °F (Nov 22, 3:00 pm)94% (Nov 24, 7:00 am)30.39 "Hg (Nov 24, 7:00 am)
Low37 °F (Nov 21, 4:00 am)8% (Nov 21, 2:00 pm)30.09 "Hg (Nov 17, 4:00 pm)
Average60 °F61%30.25 "Hg
* Reported Nov 17 4:00 pm — Dec 2 4:00 pm, Cuenca, Weather by CustomWeather, © 2016

Note: Actual official high and low records may vary slightly from our data, if they occured in-between our weather recording intervals... More about our weather records

Advertising

Cuenca Weather History for the Previous 24 Hours

Scroll right to see more
 ConditionsComfort  
Time TempWeatherWind HumidityBarometerVisibility
4:00 pm
Fri, Dec 2
70 °FScattered clouds.3 mph53%30.21 "HgN/A
3:00 pm63 °FScattered showers. Partly sunny.2 mph77%30.24 "HgN/A
2:00 pm68 °FBroken clouds.2 mph49%30.27 "HgN/A
11:00 am64 °FOvercast.3 mph64%30.36 "HgN/A
10:00 am61 °FOvercast.5 mph68%30.36 "HgN/A
9:00 am59 °FOvercast.2 mph77%30.36 "HgN/A
8:00 am57 °FOvercast.2 mph77%30.33 "HgN/A
7:00 am55 °FOvercast.1 mph82%30.33 "HgN/A
6:00 am54 °FBroken clouds.3 mph88%30.30 "HgN/A
5:00 am54 °FCool.2 mph88%30.27 "HgN/A
4:00 am54 °FCool.2 mph88%30.24 "HgN/A
3:00 am54 °FCool.2 mph88%30.24 "HgN/A
2:00 am55 °FCool.3 mph82%30.27 "HgN/A
1:00 am57 °FCool.No wind77%30.30 "HgN/A
12:00 am57 °FCool.3 mph77%30.30 "HgN/A
11:00 pm
Thu, Dec 1
57 °FPassing clouds.3 mph77%30.33 "HgN/A
10:00 pm59 °FPassing clouds.2 mph72%30.30 "HgN/A
9:00 pm59 °FPassing clouds.2 mph68%30.30 "HgN/A
8:00 pm61 °FPassing clouds.5 mph68%30.27 "HgN/A
7:00 pm63 °FPassing clouds.7 mph64%30.24 "HgN/A
6:00 pm63 °FScattered clouds.7 mph59%30.21 "HgN/A
5:00 pm66 °FBroken clouds.10 mph52%30.18 "HgN/A
Weather by CustomWeather, © 2016

See weather overviewHow to use our weather pages